El Cajon (6925) Station Data

Red Flag Warning: No
Fire Weather Zone: 250
SDGE Region: Eastern
Lat/Lon: 32.795/-116.973

Observations

Time Wind Speed/Gust Temp(F) RH Fuel Moist Fuel Temp(F) Dewpt(F) Tmax(F) Tmin(F) Accum Precip 10-min Precip SL Press(mb)
3/29 8:00am 297 0 G 1 53° 66% - - 42° 56.9° 47.4° - - -
3/29 7:50am 138 1 G 2 53° 67% - - 42° 56.9° 47.4° - - -
3/29 7:40am 109 1 G 2 54° 64% - - 42° 56.9° 47.4° - - -
3/29 7:30am 94 0 G 1 52° 70% - - 42° 56.9° 47.4° - - -
3/29 7:20am 3 1 G 2 50° 73% - - 42° 56.9° 47.4° - - -
3/29 7:10am 28 0 G 1 49° 75% - - 42° 56.9° 47.4° - - -
3/29 7:00am 49 1 G 2 48° 76% - - 41° 56.9° 47.4° - - -
3/29 6:50am 182 1 G 2 48° 77% - - 41° 56.9° 47.4° - - -
3/29 6:40am 174 1 G 2 48° 77% - - 41° 56.9° 47.6° - - -
3/29 6:30am 134 0 G 2 49° 76% - - 42° 56.9° 48.4° - - -
3/29 6:20am 10 1 G 3 50° 75% - - 42° 56.9° 48.7° - - -
3/29 6:10am 48 1 G 3 50° 74% - - 42° 56.9° 48.7° - - -
3/29 6:00am 19 1 G 2 50° 73% - - 42° 56.9° 48.7° - - -
3/29 5:50am 358 1 G 2 50° 74% - - 42° 56.9° 48.7° - - -
3/29 5:40am 294 0 G 2 49° 76% - - 42° 56.9° 48.7° - - -
3/29 5:30am 224 1 G 2 49° 76% - - 42° 56.9° 48.7° - - -
3/29 5:20am 201 0 G 1 49° 75% - - 42° 56.9° 48.9° - - -
3/29 5:10am 42 1 G 2 50° 74% - - 42° 56.9° 49.5° - - -
3/29 5:00am 50 0 G 2 50° 73% - - 42° 56.9° 49.5° - - -
3/29 4:50am 7 1 G 3 50° 73% - - 42° 56.9° 49.6° - - -
3/29 4:40am 315 1 G 2 50° 73% - - 42° 56.9° 49.6° - - -
3/29 4:30am 184 1 G 2 50° 74% - - 42° 56.9° 49.6° - - -
3/29 4:20am 188 1 G 2 50° 74% - - 42° 56.9° 49.6° - - -
3/29 4:10am 192 1 G 2 50° 74% - - 42° 56.9° 49.7° - - -
3/29 4:00am 185 2 G 3 50° 73% - - 42° 56.9° 49.9° - - -
3/29 3:50am 334 2 G 5 51° 71% - - 42° 56.9° 50.3° - - -
3/29 3:40am 9 2 G 4 52° 71% - - 42° 56.9° 50.3° - - -
3/29 3:30am 4 1 G 3 51° 72% - - 42° 56.9° 50.3° - - -
3/29 3:20am 118 1 G 2 51° 72% - - 42° 56.9° 50.3° - - -
3/29 3:10am 182 2 G 3 51° 71% - - 42° 56.9° 50.5° - - -
3/29 3:00am 190 1 G 3 52° 68% - - 42° 56.9° 51.7° - - -
3/29 2:50am 313 0 G 2 52° 67% - - 42° 56.9° 51.9° - - -
3/29 2:40am 346 2 G 4 53° 66% - - 42° 56.9° 52.2° - - -
3/29 2:30am 326 1 G 3 53° 66% - - 42° 56.9° 52.2° - - -
3/29 2:20am 201 0 G 1 53° 66% - - 42° 56.9° 52.5° - - -
3/29 2:10am 332 1 G 2 53° 65% - - 42° 56.9° 52.8° - - -
3/29 2:00am 342 1 G 2 54° 64% - - 42° 56.9° 53° - - -
3/29 1:50am 310 0 G 1 53° 65% - - 42° 56.9° 53° - - -
3/29 1:40am 207 1 G 2 53° 65% - - 42° 56.9° 53° - - -
3/29 1:30am 164 0 G 1 54° 64% - - 42° 56.9° 53.4° - - -
3/29 1:20am 173 0 G 1 54° 64% - - 42° 56.9° 53.4° - - -
3/29 1:10am 183 1 G 2 55° 62% - - 42° 56.9° 54° - - -
3/29 1:00am 44 1 G 2 55° 60% - - 42° 56.9° 54.9° - - -
3/29 12:50am 43 1 G 2 56° 59% - - 42° 56.9° 55.3° - - -
3/29 12:40am 39 1 G 2 56° 58% - - 42° 56.9° 55.3° - - -
3/29 12:30am 3 1 G 1 56° 58% - - 41° 56.9° 55.3° - - -
3/29 12:20am 341 1 G 3 56° 58% - - 41° 56.9° 55.3° - - -
3/29 12:10am 338 2 G 3 56° 57% - - 41° 56.9° 55.8° - - -
3/29 12:00am 340 2 G 3 57° 56% - - 41° 74.6° 47.9° - - -
3/28 11:50pm 2 2 G 4 57° 55% - - 41° 74.6° 47.9° - - -
3/28 11:40pm 58 2 G 3 58° 56% - - 42° 74.6° 47.9° - - -
3/28 11:30pm 53 1 G 3 58° 54% - - 41° 74.6° 47.9° - - -
3/28 11:20pm 170 0 G 1 58° 54% - - 41° 74.6° 47.9° - - -
3/28 11:10pm 211 0 G 1 58° 53% - - 41° 74.6° 47.9° - - -
3/28 11:00pm 357 1 G 2 59° 51% - - 41° 74.6° 47.9° - - -
3/28 10:50pm 77 1 G 2 59° 49% - - 40° 74.6° 47.9° - - -
3/28 10:40pm 70 1 G 2 59° 49% - - 40° 74.6° 47.9° - - -
3/28 10:30pm 124 0 G 1 60° 47% - - 40° 74.6° 47.9° - - -
3/28 10:20pm 336 1 G 3 60° 46% - - 39° 74.6° 47.9° - - -
3/28 10:10pm 351 2 G 3 61° 44% - - 39° 74.6° 47.9° - - -
3/28 10:00pm 342 1 G 2 61° 43% - - 38° 74.6° 47.9° - - -
3/28 9:50pm 221 1 G 2 61° 43% - - 38° 74.6° 47.9° - - -
3/28 9:40pm 150 0 G 2 61° 43% - - 38° 74.6° 47.9° - - -
3/28 9:30pm 125 0 G 1 61° 43% - - 38° 74.6° 47.9° - - -
3/28 9:20pm 202 1 G 2 61° 42% - - 38° 74.6° 47.9° - - -
3/28 9:10pm 216 2 G 2 62° 41% - - 38° 74.6° 47.9° - - -
3/28 9:00pm 144 1 G 3 62° 40% - - 37° 74.6° 47.9° - - -
3/28 8:50pm 137 0 G 1 63° 40% - - 38° 74.6° 47.9° - - -
3/28 8:40pm 232 1 G 2 64° 37% - - 37° 74.6° 47.9° - - -
3/28 8:30pm 227 2 G 3 64° 36% - - 37° 74.6° 47.9° - - -
3/28 8:20pm 258 3 G 4 64° 37% - - 37° 74.6° 47.9° - - -
3/28 8:10pm 260 3 G 4 64° 37% - - 37° 74.6° 47.9° - - -
3/28 8:00pm 260 2 G 4 65° 37% - - 38° 74.6° 47.9° - - -
3/28 7:50pm 249 3 G 5 65° 38% - - 39° 74.6° 47.9° - - -
3/28 7:40pm 268 2 G 4 65° 39% - - 39° 74.6° 47.9° - - -
3/28 7:30pm 286 2 G 4 65° 38% - - 39° 74.6° 47.9° - - -
3/28 7:20pm 278 2 G 5 66° 38% - - 39° 74.6° 47.9° - - -
3/28 7:10pm 265 2 G 4 66° 38% - - 40° 74.6° 47.9° - - -
3/28 7:00pm 280 2 G 5 66° 38% - - 40° 74.6° 47.9° - - -
3/28 6:50pm 302 2 G 6 67° 37% - - 40° 74.6° 47.9° - - -
3/28 6:40pm 296 3 G 6 68° 37% - - 40° 74.6° 47.9° - - -
3/28 6:30pm 303 3 G 6 68° 37% - - 41° 74.6° 47.9° - - -
3/28 6:20pm 309 4 G 7 68° 37% - - 41° 74.6° 47.9° - - -
3/28 6:10pm 294 3 G 6 69° 39% - - 42° 74.6° 47.9° - - -
3/28 6:00pm 317 4 G 8 69° 39% - - 43° 74.6° 47.9° - - -
3/28 5:50pm 301 4 G 7 69° 38% - - 43° 74.6° 47.9° - - -
3/28 5:40pm 302 5 G 10 70° 37% - - 43° 74.6° 47.9° - - -
3/28 5:30pm 265 6 G 11 70° 37% - - 42° 74.6° 47.9° - - -
3/28 5:20pm 272 5 G 12 71° 35% - - 43° 74.6° 47.9° - - -
3/28 5:10pm 268 6 G 12 71° 35% - - 42° 74.6° 47.9° - - -
3/28 5:00pm 264 7 G 12 72° 34% - - 42° 74.6° 47.9° - - -
3/28 4:50pm 266 6 G 12 72° 34% - - 42° 74.6° 47.9° - - -
3/28 4:40pm 252 8 G 12 72° 35% - - 43° 74.6° 47.9° - - -
3/28 4:30pm 259 6 G 11 72° 35% - - 43° 74.6° 47.9° - - -
3/28 4:20pm 278 5 G 8 73° 36% - - 44° 74.6° 47.9° - - -
3/28 4:10pm 294 5 G 11 73° 36% - - 44° 74.6° 47.9° - - -
3/28 4:00pm 283 4 G 8 73° 36% - - 44° 74.6° 47.9° - - -
3/28 3:50pm 257 6 G 11 72° 36% - - 44° 74.6° 47.9° - - -
3/28 3:40pm 249 7 G 14 73° 36% - - 44° 74.6° 47.9° - - -
3/28 3:30pm 253 6 G 11 72° 37% - - 44° 74.6° 47.9° - - -
3/28 3:20pm 257 7 G 12 73° 36% - - 44° 74.6° 47.9° - - -
3/28 3:10pm 228 7 G 12 73° 37% - - 45° 74.6° 47.9° - - -
3/28 3:00pm 240 5 G 9 73° 37% - - 45° 74.4° 47.9° - - -
3/28 2:50pm 286 4 G 9 72° 38% - - 46° 73.3° 47.9° - - -
3/28 2:40pm 340 5 G 12 72° 40% - - 46° 73.3° 47.9° - - -
3/28 2:30pm 266 6 G 12 72° 40% - - 46° 73.3° 47.9° - - -
3/28 2:20pm 256 4 G 10 72° 40% - - 46° 73.3° 47.9° - - -
3/28 2:10pm 252 5 G 10 72° 40% - - 46° 73.3° 47.9° - - -
3/28 2:00pm 297 4 G 10 72° 40% - - 46° 73.3° 47.9° - - -
3/28 1:50pm 273 5 G 11 72° 40% - - 47° 73.3° 47.9° - - -
3/28 1:40pm 287 4 G 12 72° 39% - - 46° 73.3° 47.9° - - -
3/28 1:30pm 294 4 G 11 72° 33% - - 41° 73.3° 47.9° - - -
3/28 1:20pm 307 5 G 10 72° 33% - - 41° 73.3° 47.9° - - -
3/28 1:10pm 256 3 G 10 72° 36% - - 44° 73.3° 47.9° - - -
3/28 1:00pm 248 4 G 11 72° 34% - - 42° 72.8° 47.9° - - -
3/28 12:50pm 248 4 G 9 71° 32% - - 40° 72.5° 47.9° - - -
3/28 12:40pm 217 3 G 8 71° 34% - - 41° 71.7° 47.9° - - -
3/28 12:30pm 252 5 G 8 71° 35% - - 42° 71.7° 47.9° - - -
3/28 12:20pm 240 4 G 11 70° 38% - - 44° 71.7° 47.9° - - -
3/28 12:10pm 253 3 G 7 69° 39% - - 43° 70.3° 47.9° - - -
3/28 12:00pm 202 4 G 9 69° 42% - - 45° 70° 47.9° - - -
3/28 11:50am 246 5 G 10 69° 44% - - 46° 69.7° 47.9° - - -
3/28 11:40am 210 4 G 8 68° 45% - - 46° 68.9° 47.9° - - -
3/28 11:30am 266 5 G 8 68° 45% - - 46° 68.6° 47.9° - - -
3/28 11:20am 244 4 G 9 67° 46% - - 46° 68.2° 47.9° - - -
3/28 11:10am 352 3 G 8 67° 45% - - 45° 67.6° 47.9° - - -
3/28 11:00am 27 4 G 7 67° 45% - - 45° 67.6° 47.9° - - -
3/28 10:50am 18 4 G 7 66° 45% - - 44° 66.8° 47.9° - - -
3/28 10:40am 341 3 G 9 65° 48% - - 45° 66.2° 47.9° - - -
3/28 10:30am 319 3 G 8 64° 48% - - 44° 65.2° 47.9° - - -
3/28 10:20am 315 3 G 7 63° 48% - - 43° 64° 47.9° - - -
3/28 10:10am 317 2 G 6 63° 50% - - 44° 64° 47.9° - - -
3/28 10:00am 13 2 G 4 61° 51% - - 43° 61.8° 47.9° - - -
3/28 9:50am 32 2 G 4 61° 53% - - 44° 61.8° 47.9° - - -
3/28 9:40am 38 1 G 3 60° 56% - - 44° 61.5° 47.9° - - -
3/28 9:30am 28 2 G 4 58° 59% - - 44° 59.3° 47.9° - - -
3/28 9:20am 11 3 G 5 57° 61% - - 44° 57.9° 47.9° - - -
3/28 9:10am 15 2 G 6 57° 61% - - 44° 57.6° 47.9° - - -
3/28 9:00am 308 1 G 4 56° 63% - - 44° 57.2° 47.9° - - -
3/28 8:50am 6 2 G 4 55° 66% - - 44° 56.2° 47.9° - - -
3/28 8:40am 208 1 G 3 54° 67% - - 44° 55.2° 47.9° - - -
3/28 8:30am 188 2 G 4 53° 69% - - 43° 55.2° 47.9° - - -
3/28 8:20am 190 2 G 4 53° 68% - - 43° 55.2° 47.9° - - -
3/28 8:10am 252 0 G 1 53° 67% - - 43° 55.2° 47.9° - - -
3/28 8:00am 92 1 G 2 52° 69% - - 42° 55.2° 47.9° - - -
3/28 7:50am 75 2 G 4 51° 71% - - 42° 55.2° 47.9° - - -
3/28 7:40am 46 3 G 6 51° 77% - - 44° 55.2° 47.9° - - -
3/28 7:30am 49 3 G 5 50° 80% - - 44° 55.2° 47.9° - - -
3/28 7:20am 38 2 G 5 50° 80% - - 44° 55.2° 47.9° - - -
3/28 7:10am 346 0 G 1 49° 82% - - 44° 55.2° 47.9° - - -
3/28 7:00am 40 1 G 2 49° 84% - - 44° 55.2° 47.9° - - -
3/28 6:50am 116 1 G 3 48° 85% - - 44° 55.2° 47.9° - - -
3/28 6:40am 176 2 G 4 49° 83% - - 44° 55.2° 47.9° - - -
3/28 6:30am 138 2 G 3 49° 81% - - 44° 55.2° 48.6° - - -
3/28 6:20am 133 1 G 3 49° 80% - - 44° 55.2° 48.6° - - -
3/28 6:10am 76 2 G 3 49° 82% - - 44° 55.2° 48.6° - - -
3/28 6:00am 182 1 G 4 50° 81% - - 44° 55.2° 49° - - -